TimeMST,TemperatureF,Dew PointF,Humidity,Sea Level PressureIn,VisibilityMPH,Wind Direction,Wind SpeedMPH,Gust SpeedMPH,PrecipitationIn,Events,Conditions,WindDirDegrees,DateUTC
12:15 AM,32.9,30.7,92,29.85,10.0,WSW,18.4,23.0,N/A,,Scattered Clouds,250,2014-03-02 07:15:00
12:35 AM,33.1,31.1,92,29.86,10.0,WSW,17.3,25.3,N/A,,Overcast,250,2014-03-02 07:35:00
12:55 AM,32.9,31.1,93,29.86,10.0,WSW,17.3,24.2,N/A,,Overcast,250,2014-03-02 07:55:00
1:15 AM,32.9,31.1,93,29.86,10.0,WSW,19.6,25.3,N/A,,Mostly Cloudy,250,2014-03-02 08:15:00
1:35 AM,32.9,31.1,93,29.87,10.0,WSW,20.7,24.2,N/A,,Scattered Clouds,250,2014-03-02 08:35:00
1:55 AM,32.9,31.1,93,29.87,10.0,West,15.0,20.7,N/A,,Scattered Clouds,260,2014-03-02 08:55:00
2:15 AM,32.9,30.9,92,29.87,10.0,WSW,15.0,21.9,N/A,,Scattered Clouds,250,2014-03-02 09:15:00
2:35 AM,32.5,30.9,94,29.87,10.0,West,16.1,21.9,N/A,,Scattered Clouds,260,2014-03-02 09:35:00
2:55 AM,32.5,30.9,94,29.88,10.0,WSW,15.0,20.7,N/A,,Clear,250,2014-03-02 09:55:00
3:15 AM,32.5,31.1,94,29.88,10.0,WSW,16.1,21.9,N/A,,Clear,250,2014-03-02 10:15:00
3:35 AM,32.4,30.7,94,29.88,10.0,WSW,16.1,21.9,N/A,,Scattered Clouds,250,2014-03-02 10:35:00
3:55 AM,32.2,30.2,92,29.89,10.0,WSW,11.5,-,N/A,,Clear,250,2014-03-02 10:55:00
4:15 AM,32.2,30.2,92,29.90,10.0,WSW,12.7,18.4,N/A,,Clear,250,2014-03-02 11:15:00
4:35 AM,32.2,30.0,92,29.90,10.0,WSW,10.4,17.3,N/A,,Scattered Clouds,250,2014-03-02 11:35:00
4:55 AM,32.0,30.0,92,29.90,10.0,WSW,16.1,20.7,N/A,,Scattered Clouds,250,2014-03-02 11:55:00
5:15 AM,32.2,30.0,92,29.91,10.0,WSW,10.4,-,N/A,,Scattered Clouds,240,2014-03-02 12:15:00
5:35 AM,32.0,30.0,92,29.92,10.0,WSW,11.5,-,N/A,,Scattered Clouds,240,2014-03-02 12:35:00
5:55 AM,32.0,29.8,92,29.92,10.0,WSW,11.5,-,N/A,,Clear,240,2014-03-02 12:55:00
6:15 AM,32.0,29.5,90,29.93,10.0,WSW,6.9,-,N/A,,Clear,250,2014-03-02 13:15:00
6:35 AM,31.5,29.7,93,29.94,10.0,WSW,11.5,-,N/A,,Clear,250,2014-03-02 13:35:00
6:55 AM,31.8,29.7,92,29.94,10.0,WSW,13.8,-,N/A,,Clear,250,2014-03-02 13:55:00
7:15 AM,32.0,29.8,92,29.95,10.0,West,13.8,18.4,N/A,,Clear,260,2014-03-02 14:15:00
7:35 AM,32.9,30.0,89,29.96,10.0,WSW,15.0,-,N/A,,Scattered Clouds,250,2014-03-02 14:35:00
7:55 AM,33.8,30.0,86,29.96,10.0,West,17.3,21.9,N/A,,Clear,260,2014-03-02 14:55:00
8:15 AM,34.2,30.2,85,29.97,10.0,West,18.4,23.0,N/A,,Clear,260,2014-03-02 15:15:00
8:35 AM,36.0,30.7,81,29.99,10.0,West,17.3,24.2,N/A,,Clear,260,2014-03-02 15:35:00
8:55 AM,37.8,30.9,76,30.00,10.0,West,15.0,23.0,N/A,,Scattered Clouds,260,2014-03-02 15:55:00
9:15 AM,37.2,30.7,77,30.01,10.0,West,17.3,23.0,N/A,,Overcast,270,2014-03-02 16:15:00
9:35 AM,36.9,30.9,79,30.01,10.0,West,13.8,20.7,N/A,,Overcast,260,2014-03-02 16:35:00
9:55 AM,38.1,30.7,75,30.02,10.0,WSW,20.7,25.3,N/A,,Scattered Clouds,250,2014-03-02 16:55:00
10:15 AM,38.3,32.0,78,30.03,10.0,WSW,23.0,28.8,N/A,,Clear,250,2014-03-02 17:15:00
10:35 AM,38.8,32.0,76,30.02,10.0,West,20.7,26.5,N/A,,Scattered Clouds,260,2014-03-02 17:35:00
10:55 AM,40.1,31.5,71,30.03,10.0,WSW,17.3,25.3,N/A,,Scattered Clouds,250,2014-03-02 17:55:00
11:15 AM,39.7,30.7,70,30.03,10.0,West,18.4,27.6,N/A,,Mostly Cloudy,270,2014-03-02 18:15:00
11:35 AM,40.1,30.6,69,30.04,10.0,West,21.9,28.8,N/A,,Scattered Clouds,270,2014-03-02 18:35:00
11:55 AM,41.2,29.8,64,30.03,10.0,West,23.0,29.9,N/A,,Scattered Clouds,260,2014-03-02 18:55:00
12:15 PM,41.2,28.9,62,30.02,10.0,West,20.7,28.8,N/A,,Clear,270,2014-03-02 19:15:00
12:35 PM,42.4,30.0,61,30.02,10.0,West,20.7,-,N/A,,Clear,270,2014-03-02 19:35:00
12:55 PM,42.1,29.8,62,30.02,10.0,West,19.6,26.5,N/A,,Clear,270,2014-03-02 19:55:00
1:15 PM,43.9,29.8,58,30.02,10.0,West,20.7,26.5,N/A,,Scattered Clouds,260,2014-03-02 20:15:00
1:35 PM,43.2,29.3,58,30.01,10.0,West,19.6,26.5,N/A,,Clear,270,2014-03-02 20:35:00
1:50 PM,43.9,29.5,57,30.02,10.0,West,20.7,27.6,N/A,,Clear,270,2014-03-02 20:50:00
2:15 PM,44.2,28.6,54,30.01,10.0,West,18.4,25.3,N/A,,Clear,260,2014-03-02 21:15:00
2:35 PM,42.4,28.6,58,30.01,10.0,West,18.4,26.5,N/A,,Scattered Clouds,270,2014-03-02 21:35:00
2:55 PM,44.6,29.3,55,30.01,10.0,West,17.3,24.2,N/A,,Scattered Clouds,270,2014-03-02 21:55:00
3:15 PM,43.9,28.0,54,30.02,10.0,West,19.6,25.3,N/A,,Clear,270,2014-03-02 22:15:00
3:35 PM,43.3,27.7,54,30.03,10.0,West,21.9,27.6,N/A,,Clear,260,2014-03-02 22:35:00
3:50 PM,40.8,28.6,62,30.03,10.0,WSW,18.4,24.2,N/A,,Clear,250,2014-03-02 22:50:00
4:15 PM,41.9,30.2,63,30.03,10.0,WSW,17.3,20.7,N/A,,Mostly Cloudy,250,2014-03-02 23:15:00
4:35 PM,42.3,29.5,61,30.03,10.0,WSW,13.8,19.6,N/A,,Scattered Clouds,250,2014-03-02 23:35:00
4:55 PM,41.5,29.8,63,30.03,10.0,West,15.0,-,N/A,,Clear,260,2014-03-02 23:55:00
5:15 PM,40.1,29.1,65,30.03,10.0,West,13.8,21.9,N/A,,Clear,260,2014-03-03 00:15:00
5:35 PM,39.2,29.8,69,30.04,10.0,West,9.2,16.1,N/A,,Clear,270,2014-03-03 00:35:00
5:55 PM,38.3,30.2,73,30.04,10.0,West,9.2,-,N/A,,Clear,270,2014-03-03 00:55:00
6:15 PM,37.4,30.2,75,30.04,10.0,WSW,8.1,-,N/A,,Clear,250,2014-03-03 01:15:00
6:35 PM,37.0,30.2,76,30.04,10.0,WSW,9.2,-,N/A,,Clear,250,2014-03-03 01:35:00
6:55 PM,37.0,28.9,73,30.06,10.0,WSW,10.4,-,N/A,,Clear,250,2014-03-03 01:55:00
7:15 PM,36.5,28.9,74,30.06,10.0,West,11.5,-,N/A,,Clear,260,2014-03-03 02:15:00
7:35 PM,35.2,29.1,78,30.06,10.0,WSW,8.1,-,N/A,,Clear,250,2014-03-03 02:35:00
7:55 PM,35.1,29.1,79,30.06,10.0,WSW,10.4,-,N/A,,Clear,250,2014-03-03 02:55:00
8:15 PM,35.2,28.9,78,30.07,10.0,WSW,10.4,-,N/A,,Clear,240,2014-03-03 03:15:00
8:35 PM,35.6,28.9,77,30.07,10.0,WSW,11.5,-,N/A,,Clear,240,2014-03-03 03:35:00
8:55 PM,36.1,28.6,74,30.07,10.0,WSW,11.5,-,N/A,,Clear,240,2014-03-03 03:55:00
9:15 PM,36.7,28.2,71,30.07,10.0,WSW,12.7,-,N/A,,Mostly Cloudy,240,2014-03-03 04:15:00
9:35 PM,36.7,28.2,71,30.07,10.0,SW,12.7,-,N/A,,Mostly Cloudy,230,2014-03-03 04:35:00
9:55 PM,36.7,28.0,71,30.07,10.0,WSW,11.5,-,N/A,,Overcast,240,2014-03-03 04:55:00
10:15 PM,36.5,27.5,70,30.08,10.0,WSW,12.7,-,N/A,,Mostly Cloudy,240,2014-03-03 05:15:00
10:35 PM,36.5,27.5,70,30.06,10.0,WSW,11.5,-,N/A,,Mostly Cloudy,240,2014-03-03 05:35:00
10:55 PM,36.1,27.5,71,30.06,10.0,WSW,10.4,-,N/A,,Scattered Clouds,240,2014-03-03 05:55:00
11:15 PM,35.6,27.9,73,30.06,10.0,WSW,10.4,-,N/A,,Scattered Clouds,240,2014-03-03 06:15:00
11:35 PM,35.4,27.3,72,30.06,10.0,WSW,15.0,-,N/A,,Scattered Clouds,240,2014-03-03 06:35:00
11:55 PM,35.8,27.7,72,30.05,10.0,WSW,16.1,-,N/A,,Clear,240,2014-03-03 06:55:00